EW7082 Weather Reports


Display with metric or nautical units.
time (UTC)temp
F
wind
direction
speed
MPH
gust
MPH
rain 1hr
in
rain 24hr
in
rain mn
in
humidity
%
barometer
mb
20260902214705 65 305 3.0 8.0 0.00 0.00 0.00 76 1000.6
20260902213704 64 209 2.0 6.0 0.00 0.00 0.00 76 1000.6
20260902213205 64 285 5.0 8.0 0.00 0.00 0.00 76 1000.5
20260902212705 65 293 3.0 8.0 0.00 0.00 0.00 76 1000.7
20260902212205 65 295 3.0 7.0 0.00 0.00 0.00 75 1000.7
20260902211705 66 222 2.0 8.0 0.00 0.00 0.00 74 1000.7
20260902211204 68 209 11.0 15.0 0.00 0.00 0.00 69 1000.6
20260902210703 69 150 7.0 20.0 0.00 0.00 0.00 64 1000.7
20260902205704 68 116 7.0 16.0 0.00 0.00 0.00 69 1000.9
20260902204704 66 165 7.0 14.0 0.00 0.00 0.00 76 1000.9
20260902203703 64 279 7.0 12.0 0.00 0.00 0.00 80 1001.2
20260902203204 64 286 8.0 12.0 0.00 0.00 0.00 81 1001.3
20260902202704 64 305 7.0 10.0 0.00 0.00 0.00 80 1001.4
20260902201705 64 298 6.0 8.0 0.00 0.00 0.00 81 1001.6
20260902201204 63 307 4.0 8.0 0.00 0.00 0.00 81 1001.7
20260902200704 63 312 4.0 8.0 0.00 0.00 0.00 82 1001.8
20260902200206 63 290 4.0 7.0 0.00 0.00 0.00 81 1001.9
20260902195705 63 320 3.0 8.0 0.00 0.00 0.00 81 1001.9
20260902195203 63 305 6.0 9.0 0.00 0.00 0.00 81 1001.9
20260902194705 63 289 5.0 8.0 0.00 0.00 0.00 82 1001.9
20260902194204 63 278 4.0 8.0 0.00 0.00 0.00 81 1002.1
20260902193704 63 278 7.0 9.0 0.00 0.00 0.00 81 1002.1
20260902192704 63 301 5.0 7.0 0.00 0.00 0.00 80 1002.2
20260902192204 63 311 4.0 5.0 0.00 0.00 0.00 81 1002.3
20260902191204 63 290 5.0 7.0 0.00 0.00 0.00 81 1002.4
20260902190704 63 283 7.0 9.0 0.00 0.00 0.00 80 1002.4
20260902190205 63 310 5.0 9.0 0.00 0.00 0.00 80 1002.5
20260902185704 63 294 5.0 8.0 0.00 0.00 0.00 81 1002.5
20260902185206 63 303 6.0 10.0 0.00 0.00 0.00 81 1002.6
20260902184706 63 276 3.0 6.0 0.00 0.00 0.00 82 1002.7
20260902184204 63 325 4.0 6.0 0.00 0.00 0.00 82 1002.7
20260902183703 63 300 3.0 5.0 0.00 0.00 0.00 82 1002.9
20260902183205 63 297 3.0 6.0 0.00 0.00 0.00 82 1003.0
20260902182704 63 289 3.0 5.0 0.00 0.00 0.00 82 1002.9
20260902182204 63 294 3.0 7.0 0.00 0.00 0.00 82 1003.0
20260902181704 63 301 3.0 7.0 0.00 0.00 0.00 83 1003.0
20260902181203 63 291 5.0 7.0 0.00 0.00 0.00 83 1003.1
20260902180206 63 301 2.0 3.0 0.00 0.00 0.00 84 1003.3
20260902175704 63 297 3.0 6.0 0.00 0.00 0.00 83 1003.3
20260902175204 63 281 3.0 7.0 0.00 0.00 0.00 83 1003.3
20260902174705 63 279 3.0 5.0 0.00 0.00 0.00 83 1003.3
20260902173704 62 277 3.0 3.0 0.00 0.00 0.00 84 1003.5
20260902173204 62 282 3.0 6.0 0.00 0.00 0.00 84 1003.5
20260902172704 62 263 2.0 3.0 0.00 0.00 0.00 84 1003.5
20260902172205 62 294 1.0 3.0 0.00 0.00 0.00 84 1003.8
20260902171704 62 286 3.0 6.0 0.00 0.00 0.00 85 1003.6
20260902171204 62 322 2.0 3.0 0.00 0.00 0.00 85 1003.6
20260902170705 62 277 1.0 3.0 0.00 0.00 0.00 85 1003.8
20260902170204 62 285 2.0 3.0 0.00 0.00 0.00 86 1003.9
20260902165704 61 285 1.0 3.0 0.00 0.00 0.00 86 1004.0
20260902165205 61 281 2.0 3.0 0.00 0.00 0.00 86 1003.9
20260902164704 61 333 1.0 3.0 0.00 0.00 0.00 87 1003.9
20260902164204 61 302 2.0 3.0 0.00 0.00 0.00 87 1003.9
20260902163704 61 338 2.0 3.0 0.00 0.00 0.00 87 1003.9
20260902163205 61 355 2.0 3.0 0.00 0.00 0.00 88 1004.2
20260902162703 61 321 2.0 3.0 0.00 0.00 0.00 88 1004.2
20260902162204 60 238 2.0 3.0 0.00 0.00 0.00 88 1004.2
20260902161705 60 258 2.0 3.0 0.00 0.00 0.00 89 1004.2
20260902161203 60 235 1.0 3.0 0.00 0.00 0.00 89 1004.3
20260902160705 60 313 2.0 3.0 0.00 0.00 0.00 90 1004.2
20260902160205 60 271 3.0 3.0 0.00 0.00 0.00 91 1004.3
20260902155704 60 253 2.0 3.0 0.00 0.00 0.00 92 1004.4
20260902155203 59 297 2.0 3.0 0.00 0.00 0.00 92 1004.4
20260902154706 59 309 2.0 3.0 0.00 0.00 0.00 92 1004.5
20260902154204 59 0 2.0 3.0 0.00 0.00 0.00 93 1004.6
20260902153704 58 270 1.0 3.0 0.00 0.00 0.00 94 1004.6
20260902153204 58 279 1.0 3.0 0.00 0.00 0.00 95 1004.7
20260902152704 57 325 0.0 1.0 0.00 0.00 0.00 95 1004.7
20260902152204 57 325 0.0 1.0 0.00 0.00 0.00 95 1004.8
20260902151704 57 325 0.0 0.0 0.00 0.00 0.00 95 1004.7
20260902151204 56 325 0.0 1.0 0.00 0.00 0.00 96 1004.8
20260902150205 56 14 0.0 2.0 0.00 0.00 0.00 96 1004.8
20260902145703 56 261 0.0 1.0 0.00 0.00 0.00 97 1005.0
20260902145204 55 257 0.0 0.0 0.00 0.00 0.00 96 1004.9
20260902144204 54 257 0.0 1.0 0.00 0.00 0.00 96 1004.9
20260902143704 54 257 0.0 1.0 0.00 0.00 0.00 96 1005.1
20260902141203 52 257 0.0 0.0 0.00 0.00 0.00 96 1005.0
20260902140705 52 257 1.0 1.0 0.00 0.00 0.00 96 1005.1
20260902135204 51 207 1.0 2.0 0.00 0.00 0.00 95 1005.1
20260902134705 52 171 0.0 0.0 0.00 0.00 0.00 96 1005.2
20260902133704 51 171 0.0 0.0 0.00 0.00 0.00 96 1005.1
20260902132704 51 171 0.0 0.0 0.00 0.00 0.00 95 1005.1
20260902132203 51 171 0.0 0.0 0.00 0.00 0.00 95 1005.1
20260902131704 51 171 0.0 2.0 0.00 0.00 0.00 95 1005.0
20260902131203 51 171 0.0 0.0 0.00 0.00 0.00 94 1004.9
20260902130204 52 171 0.0 3.0 0.00 0.00 0.00 94 1005.0
20260902125705 52 171 1.0 2.0 0.00 0.00 0.00 95 1005.1
20260902125204 52 223 0.0 0.0 0.00 0.00 0.00 95 1005.0
20260902124705 53 223 0.0 2.0 0.00 0.00 0.00 95 1005.1
20260902123703 53 266 0.0 1.0 0.00 0.00 0.00 95 1005.0
20260902123205 53 266 1.0 2.0 0.00 0.00 0.00 95 1005.1
20260902122704 53 266 0.0 1.0 0.00 0.00 0.00 95 1005.2
20260902122204 53 266 1.0 2.0 0.00 0.00 0.00 95 1005.2
20260902121204 53 223 0.0 1.0 0.00 0.00 0.00 94 1005.3
20260902120204 54 265 1.0 2.0 0.00 0.00 0.00 94 1005.4
20260902115704 54 275 0.0 1.0 0.00 0.00 0.00 94 1005.4
20260902113704 55 275 0.0 1.0 0.00 0.00 0.00 94 1005.8
20260902112205 55 217 0.0 1.0 0.00 0.00 0.00 94 1005.9
20260902111705 55 217 1.0 2.0 0.00 0.00 0.00 94 1006.1
20260902111203 56 217 1.0 2.0 0.00 0.00 0.00 94 1006.2
20260902110705 56 77 0.0 1.0 0.00 0.00 0.00 94 1006.1
20260902110204 56 77 0.0 2.0 0.00 0.00 0.00 94 1006.1
20260902105705 56 73 1.0 2.0 0.00 0.00 0.00 94 1006.2
20260902104204 56 80 1.0 1.0 0.00 0.00 0.00 94 1006.2
20260902103704 56 80 0.0 1.0 0.00 0.00 0.00 94 1006.3
20260902103205 56 80 0.0 1.0 0.00 0.00 0.00 94 1006.3
20260902102705 56 80 0.0 0.0 0.00 0.00 0.00 94 1006.5
20260902102204 56 80 0.0 0.0 0.00 0.00 0.00 94 1006.5
20260902101706 56 80 0.0 0.0 0.00 0.00 0.00 94 1006.7
20260902100705 56 80 1.0 2.0 0.00 0.00 0.00 94 1006.7
20260902100204 56 264 0.0 2.0 0.00 0.00 0.00 94 1006.7
20260902095704 56 264 1.0 2.0 0.00 0.00 0.00 94 1006.7
20260902095204 55 264 0.0 1.0 0.00 0.00 0.00 94 1006.7
20260902094705 55 264 1.0 2.0 0.00 0.00 0.00 94 1006.8
20260902094204 55 232 1.0 2.0 0.00 0.00 0.00 94 1006.8
20260902093704 55 232 0.0 1.0 0.00 0.00 0.00 94 1006.9
20260902093205 55 232 2.0 3.0 0.00 0.00 0.00 94 1007.0
20260902092704 56 213 0.0 1.0 0.00 0.00 0.00 94 1007.0
20260902092204 55 213 0.0 0.0 0.00 0.00 0.00 94 1007.0
20260902091204 55 302 1.0 2.0 0.00 0.00 0.00 93 1007.2
20260902090704 55 302 1.0 2.0 0.00 0.00 0.00 93 1007.2
20260902090206 55 295 1.0 2.0 0.00 0.00 0.00 94 1007.3
20260902085703 55 51 2.0 3.0 0.00 0.00 0.00 93 1007.3
20260902085205 55 202 1.0 3.0 0.00 0.00 0.00 93 1007.3
20260902084705 55 202 1.0 3.0 0.00 0.00 0.00 92 1007.4
20260902084205 56 202 0.0 1.0 0.00 0.00 0.00 92 1007.3
20260902083704 56 202 0.0 1.0 0.00 0.00 0.00 92 1007.4
20260902083205 56 202 1.0 2.0 0.00 0.00 0.00 92 1007.6
20260902082705 56 202 0.0 1.0 0.00 0.00 0.00 92 1007.6
20260902082204 56 202 1.0 2.0 0.00 0.00 0.00 92 1007.7
20260902081705 57 202 0.0 2.0 0.00 0.00 0.00 92 1007.5
20260902081205 57 202 0.0 0.0 0.00 0.00 0.00 92 1007.5
20260902080704 57 202 0.0 0.0 0.00 0.00 0.00 92 1007.5
20260902080205 57 202 0.0 2.0 0.00 0.00 0.00 91 1007.6
20260902075703 57 202 0.0 1.0 0.00 0.00 0.00 91 1007.7
20260902075204 57 202 2.0 3.0 0.00 0.00 0.00 90 1007.8
20260902074704 58 51 0.0 0.0 0.00 0.00 0.00 90 1007.8
20260902074204 58 51 0.0 2.0 0.00 0.00 0.00 91 1007.8
20260902073705 59 51 0.0 2.0 0.00 0.00 0.00 90 1007.8
20260902073204 59 51 0.0 0.0 0.00 0.00 0.00 90 1007.8
20260902072704 59 51 0.0 0.0 0.00 0.00 0.00 90 1007.9
20260902072204 59 51 0.0 1.0 0.00 0.00 0.00 89 1008.1
20260902071704 60 51 1.0 2.0 0.00 0.00 0.00 89 1008.0
20260902071205 60 51 0.0 1.0 0.00 0.00 0.00 89 1007.9
20260902070704 60 51 0.0 0.0 0.00 0.00 0.00 89 1008.0
20260902070205 60 51 0.0 0.0 0.00 0.00 0.00 89 1008.0
20260902065704 60 51 0.0 0.0 0.00 0.00 0.00 89 1008.0
20260902065204 61 51 0.0 0.0 0.00 0.00 0.00 88 1008.1
20260902064705 61 51 0.0 0.0 0.00 0.00 0.00 88 1008.1
20260902064204 61 51 0.0 0.0 0.00 0.00 0.00 88 1008.1
20260902063703 61 51 0.0 1.0 0.00 0.00 0.00 88 1008.2
20260902062705 61 51 0.0 0.0 0.00 0.00 0.00 87 1008.3
20260902061705 61 51 0.0 0.0 0.00 0.00 0.00 87 1008.3
20260902061203 61 51 0.0 2.0 0.00 0.00 0.00 87 1008.2
20260902060204 61 41 1.0 3.0 0.00 0.00 0.00 87 1008.4
20260902055204 62 302 0.0 0.0 0.00 0.00 0.00 87 1008.5
20260902054705 62 302 0.0 0.0 0.00 0.00 0.00 87 1008.5
20260902054205 62 302 0.0 0.0 0.00 0.00 0.00 87 1008.7
20260902053704 62 302 0.0 0.0 0.00 0.00 0.00 87 1008.6
20260902053206 62 302 0.0 0.0 0.00 0.00 0.00 86 1008.6
20260902052205 62 302 0.0 0.0 0.00 0.00 0.00 87 1008.8
20260902051704 62 302 0.0 0.0 0.00 0.00 0.00 87 1008.8
20260902051204 62 302 0.0 0.0 0.00 0.00 0.00 87 1008.8
20260902050704 62 302 0.0 0.0 0.00 0.00 0.00 87 1008.8
20260902050204 62 302 0.0 0.0 0.00 0.00 0.00 87 1008.9
20260902045704 62 302 0.0 1.0 0.00 0.00 0.00 87 1008.8
20260902045204 62 302 0.0 0.0 0.00 0.00 0.00 87 1008.8
20260902044705 62 302 0.0 0.0 0.00 0.00 0.00 87 1008.9
20260902044204 62 302 0.0 0.0 0.00 0.00 0.00 87 1008.9
20260902043205 62 302 0.0 0.0 0.00 0.00 0.00 87 1009.0
20260902042704 62 302 0.0 0.0 0.00 0.00 0.00 87 1009.0
20260902042204 62 302 0.0 2.0 0.00 0.00 0.00 87 1009.1
20260902041704 62 302 1.0 2.0 0.00 0.00 0.00 86 1009.1
20260902041204 62 302 0.0 2.0 0.00 0.00 0.00 86 1009.0
20260902040204 63 302 0.0 0.0 0.00 0.00 0.00 86 1009.0
20260902035705 63 302 0.0 0.0 0.00 0.00 0.00 86 1008.9
20260902035204 63 302 0.0 0.0 0.00 0.00 0.00 85 1008.9
20260902034705 63 302 0.0 0.0 0.00 0.00 0.00 85 1008.9
20260902034205 63 302 0.0 0.0 0.00 0.00 0.00 85 1008.9
20260902033704 63 302 0.0 0.0 0.00 0.00 0.00 85 1008.8
20260902033204 63 302 0.0 0.0 0.00 0.00 0.00 84 1008.8
20260902032704 63 302 0.0 0.0 0.00 0.00 0.00 83 1008.8
20260902032205 63 302 0.0 0.0 0.00 0.00 0.00 83 1008.8
20260902031705 64 302 0.0 0.0 0.00 0.00 0.00 83 1008.7
20260902030705 64 302 0.0 0.0 0.00 0.00 0.00 83 1008.9
20260902030205 64 302 0.0 0.0 0.00 0.00 0.00 82 1008.9
20260902025704 64 302 0.0 0.0 0.00 0.00 0.00 82 1008.9
20260902025204 64 302 0.0 0.0 0.00 0.00 0.00 82 1008.9
20260902024706 64 302 0.0 0.0 0.00 0.00 0.00 82 1008.9
20260902024205 64 302 0.0 0.0 0.00 0.00 0.00 81 1009.0
20260902023704 64 302 0.0 0.0 0.00 0.00 0.00 81 1009.0
20260902023206 64 302 0.0 0.0 0.00 0.00 0.00 82 1009.0
20260902022703 64 302 0.0 0.0 0.00 0.00 0.00 82 1009.0
20260902022204 64 302 0.0 0.0 0.00 0.00 0.00 81 1009.0
20260902021705 64 302 0.0 0.0 0.00 0.00 0.00 82 1009.0
20260902021204 64 302 0.0 1.0 0.00 0.00 0.00 81 1009.0
20260902020704 64 302 0.0 1.0 0.00 0.00 0.00 82 1009.0
20260902015705 64 302 0.0 0.0 0.00 0.00 0.00 81 1009.2
20260902015205 64 302 0.0 1.0 0.00 0.00 0.00 81 1009.2
20260902014705 64 302 0.0 1.0 0.00 0.00 0.00 81 1009.2
20260902014204 64 302 2.0 6.0 0.00 0.00 0.00 81 1009.2
20260902013704 64 152 0.0 0.0 0.00 0.00 0.00 80 1009.2
20260902013205 64 152 0.0 0.0 0.00 0.00 0.00 80 1009.1
20260902011705 64 152 0.0 0.0 0.00 0.00 0.00 80 1009.2
20260902011205 64 152 0.0 0.0 0.00 0.00 0.00 80 1009.2
20260902010704 64 152 0.0 0.0 0.00 0.00 0.00 80 1009.1
20260902005704 64 152 0.0 0.0 0.00 0.00 0.00 80 1009.2
20260902004204 64 152 0.0 2.0 0.00 0.00 0.00 80 1009.1
20260902003704 64 152 0.0 2.0 0.00 0.00 0.00 80 1009.2
20260902003204 64 152 0.0 0.0 0.00 0.00 0.00 80 1009.2
20260902002704 64 152 0.0 0.0 0.00 0.00 0.00 80 1009.2
20260902002204 64 152 0.0 0.0 0.00 0.00 0.00 80 1009.1
20260902001705 64 42 0.0 0.0 0.00 0.00 0.00 80 1009.1
20260902001205 64 42 0.0 0.0 0.00 0.00 0.00 80 1009.2
20260902000204 64 329 0.0 0.0 0.00 0.00 0.00 79 1009.3
20260901235704 64 329 1.0 2.0 0.00 0.00 0.00 79 1009.3
20260901235204 64 350 0.0 0.0 0.00 0.00 0.00 79 1009.3
20260901234705 64 350 0.0 2.0 0.00 0.00 0.00 79 1009.3
20260901234205 64 352 0.0 2.0 0.00 0.00 0.00 79 1009.3
20260901233204 64 281 2.0 3.0 0.00 0.00 0.00 79 1009.3
20260901232705 64 309 2.0 3.0 0.00 0.00 0.00 79 1009.3
20260901232204 64 308 2.0 5.0 0.00 0.00 0.00 79 1009.3
20260901231705 64 316 3.0 3.0 0.00 0.00 0.00 79 1009.3
20260901231204 64 320 3.0 5.0 0.00 0.00 0.00 78 1009.3
20260901230704 64 314 3.0 5.0 0.00 0.00 0.00 79 1009.3
20260901230205 64 335 3.0 7.0 0.00 0.00 0.00 78 1009.3
20260901225704 64 298 3.0 5.0 0.00 0.00 0.00 79 1009.3
20260901225203 64 300 3.0 7.0 0.00 0.00 0.00 78 1009.3
20260901224704 64 320 3.0 7.0 0.00 0.00 0.00 78 1009.3
20260901224204 64 293 3.0 6.0 0.00 0.00 0.00 78 1009.3
20260901223705 64 300 3.0 6.0 0.00 0.00 0.00 78 1009.3
20260901223206 64 294 3.0 3.0 0.00 0.00 0.00 79 1009.3
20260901222704 64 314 3.0 8.0 0.00 0.00 0.00 79 1009.3
20260901222204 64 305 3.0 8.0 0.00 0.00 0.00 79 1009.4
20260901221705 64 311 6.0 9.0 0.00 0.00 0.00 79 1009.5
20260901220704 64 316 5.0 8.0 0.00 0.00 0.00 80 1009.5
20260901220206 64 294 5.0 7.0 0.00 0.00 0.00 80 1009.5
20260901215704 64 315 3.0 5.0 0.00 0.00 0.00 80 1009.5